Paris Le Bourget, France

3:03 PM CEST on September 21, 2017 (GMT +0200)
Le Bourget

Weather History for LFPB - August, 2013

Change the Weather History Date:

Tuesday, August 20, 2013

  Actual Average Record
Temperature  
Mean Temperature 62 °F -  
Max Temperature 75 °F 71 °F 87 °F (1997)
Min Temperature 50 °F 54 °F 48 °F (2014)
Degree Days  
Heating Degree Days 2    
Growing Degree Days 12 (Base 50)    
Moisture  
Dew Point 49 °F    
Average Humidity 64    
Maximum Humidity 94    
Minimum Humidity 34    
Precipitation  
Precipitation 0.00 in 0.07 in - ()
Sea Level Pressure  
Sea Level Pressure 30.34 in    
Wind  
Wind Speed 2 mph ()    
Max Wind Speed 7 mph    
Max Gust Speed -    
Visibility 6.2 miles    
Events      
Averages and records for this station are not official NWS values.
T = Trace of Precipitation, MM = Missing Value Source: Averaged Metar Reports

Daily Weather History Graph

Daily Weather History Graph

Search for Another Location

Airport or City:

Trip Planner

Search our weather history database for the weather conditions in past years. The results will help you decide how hot, cold, wet, or windy it might be!

Date:

Astronomy

Aug. 20, 2013 Rise Set
Actual Time 6:49 AM CEST 8:56 PM CEST
Civil Twilight 6:15 AM CEST 9:30 PM CEST
Nautical Twilight 5:32 AM CEST 10:13 PM CEST
Astronomical Twilight 4:44 AM CEST 11:00 PM CEST
Moon 8:13 PM CEST (8/20) 6:02 AM CEST (8/20)
Length of Visible Light 15h 15m
Length of Day
14h 06m
Waxing Gibbous, 99% of the Moon is Illuminated
Aug 20
Waxing Gibbous
Aug 21
Full
Aug 28
Last Quarter
Sep 5
New
Sep 12
First Quarter

Hourly Weather History & Observations

Time (CEST) Temp. Dew Point Humidity Pressure Visibility Wind Dir Wind Speed Gust Speed Precip Events Conditions
12:00 AM 57.2 °F 48.2 °F 72% 30.33 in 6.2 mi North 1.2 mph - N/A   Unknown
12:30 AM 55.4 °F 48.2 °F 77% 30.33 in 6.2 mi Calm Calm - N/A   Unknown
1:00 AM 55.4 °F 48.2 °F 77% 30.33 in 6.2 mi Calm Calm - N/A   Unknown
1:30 AM 55.4 °F 48.2 °F 77% 30.33 in 6.2 mi Variable 1.2 mph - N/A   Unknown
2:00 AM 55.4 °F 48.2 °F 77% 30.33 in 6.2 mi North 1.2 mph - N/A   Unknown
2:30 AM 53.6 °F 48.2 °F 82% 30.36 in 6.2 mi Calm Calm - N/A   Unknown
3:00 AM 51.8 °F 48.2 °F 88% 30.36 in 6.2 mi Calm Calm - N/A   Unknown
3:30 AM 51.8 °F 48.2 °F 88% 30.36 in 6.2 mi Calm Calm - N/A   Unknown
4:00 AM 51.8 °F 48.2 °F 88% 30.36 in 6.2 mi North 1.2 mph - N/A   Unknown
4:30 AM 51.8 °F 48.2 °F 88% 30.33 in 6.2 mi Calm Calm - N/A   Unknown
5:00 AM 51.8 °F 48.2 °F 88% 30.33 in 6.2 mi Calm Calm - N/A   Unknown
5:30 AM 50.0 °F 48.2 °F 94% 30.33 in 6.2 mi North 1.2 mph - N/A   Unknown
6:00 AM 50.0 °F 48.2 °F 94% 30.33 in 6.2 mi NNE 2.3 mph - N/A   Unknown
6:30 AM 50.0 °F 48.2 °F 94% 30.36 in 6.2 mi North 3.5 mph - N/A   Unknown
7:00 AM 50.0 °F 48.2 °F 94% 30.36 in 6.2 mi ENE 2.3 mph - N/A   Unknown
7:30 AM 50.0 °F 48.2 °F 94% 30.36 in 6.2 mi Variable 2.3 mph - N/A   Unknown
8:00 AM 51.8 °F 50.0 °F 94% 30.39 in 6.2 mi Variable 1.2 mph - N/A   Unknown
8:30 AM 55.4 °F 53.6 °F 94% 30.36 in 6.2 mi Calm Calm - N/A   Unknown
9:00 AM 57.2 °F 53.6 °F 88% 30.39 in 6.2 mi Calm Calm - N/A   Unknown
9:30 AM 60.8 °F 55.4 °F 82% 30.39 in 6.2 mi Variable 3.5 mph - N/A   Unknown
10:00 AM 62.6 °F 55.4 °F 77% 30.39 in 6.2 mi Calm Calm - N/A   Unknown
10:30 AM 66.2 °F 53.6 °F 64% 30.39 in 6.2 mi Variable 1.2 mph - N/A   Unknown
11:00 AM 66.2 °F 53.6 °F 64% 30.39 in 6.2 mi Variable 1.2 mph - N/A   Unknown
11:30 AM 68.0 °F 50.0 °F 52% 30.39 in 6.2 mi Variable 2.3 mph - N/A   Unknown
12:00 PM 68.0 °F 50.0 °F 52% 30.39 in 6.2 mi Variable 3.5 mph - N/A   Unknown
12:30 PM 69.8 °F 50.0 °F 49% 30.39 in 6.2 mi Variable 2.3 mph - N/A   Unknown
1:00 PM 71.6 °F 48.2 °F 43% 30.39 in 6.2 mi Variable 3.5 mph - N/A   Unknown
1:30 PM 71.6 °F 48.2 °F 43% 30.36 in 6.2 mi Variable 5.8 mph - N/A   Unknown
2:00 PM 71.6 °F 48.2 °F 43% 30.36 in 6.2 mi Variable 3.5 mph - N/A   Unknown
2:30 PM 73.4 °F 48.2 °F 41% 30.36 in 6.2 mi Variable 3.5 mph - N/A   Unknown
3:00 PM 75.2 °F 46.4 °F 36% 30.36 in 6.2 mi WNW 4.6 mph - N/A   Unknown
3:30 PM 75.2 °F 44.6 °F 34% 30.33 in 6.2 mi Variable 2.3 mph - N/A   Unknown
4:00 PM 75.2 °F 46.4 °F 36% 30.33 in 6.2 mi East 4.6 mph - N/A   Unknown
4:30 PM 75.2 °F 44.6 °F 34% 30.33 in 6.2 mi Variable 3.5 mph - N/A   Unknown
5:00 PM 75.2 °F 44.6 °F 34% 30.33 in 6.2 mi Variable 2.3 mph - N/A   Unknown
5:30 PM 75.2 °F 46.4 °F 36% 30.30 in 6.2 mi North 4.6 mph - N/A   Unknown
6:00 PM 75.2 °F 48.2 °F 38% 30.30 in 6.2 mi ENE 5.8 mph - N/A   Unknown
6:30 PM 75.2 °F 48.2 °F 38% 30.30 in 6.2 mi Variable 3.5 mph - N/A   Unknown
7:00 PM 75.2 °F 50.0 °F 41% 30.30 in 6.2 mi North 5.8 mph - N/A   Unknown
7:30 PM 73.4 °F 48.2 °F 41% 30.30 in 6.2 mi NNE 5.8 mph - N/A   Unknown
8:00 PM 73.4 °F 48.2 °F 41% 30.30 in 6.2 mi North 5.8 mph - N/A   Unknown
8:30 PM 71.6 °F 50.0 °F 46% 30.30 in 6.2 mi North 4.6 mph - N/A   Unknown
9:00 PM 69.8 °F 50.0 °F 49% 30.30 in 6.2 mi NNE 3.5 mph - N/A   Unknown
9:30 PM 68.0 °F 51.8 °F 56% 30.30 in 6.2 mi NNE 5.8 mph - N/A   Unknown
10:00 PM 66.2 °F 51.8 °F 60% 30.33 in 6.2 mi NE 6.9 mph - N/A   Unknown
10:30 PM 64.4 °F 51.8 °F 64% 30.30 in 6.2 mi NE 5.8 mph - N/A   Unknown
11:00 PM 62.6 °F 50.0 °F 63% 30.33 in 6.2 mi NE 5.8 mph - N/A   Unknown
11:30 PM 60.8 °F 50.0 °F 68% 30.33 in 6.2 mi ENE 5.8 mph - N/A   Unknown